Details for Norwegian Air Shuttle at LEMG




Go Back


Latest METAR
Local Time

LEMG 220930Z 10006KT 060V160 9999 FEW010 26/21 Q1022 NOSIG
22/09/2018, 11:43:27

Description
Results
Norwegian Air Shuttle Logo
Number of Pilots based at LEMG
0 Pilots Based here
Number of Norwegian Air Shuttle Flights Departed from LEMG
0 Flights Departed
Number of Norwegian Air Shuttle Flights Arrived at LEMG
0 Flights Arrived
Number of Norwegian Air Shuttle Schedules Departing from LEMG
22 Schedules
Number of Norwegian Air Shuttle Schedules Arriving at LEMG
19 Schedules
Number of Norwegian Air Shuttle Schedules Departing from LEMG availible today
12 Schedules Today
Number of Norwegian Air Shuttle Schedules Arriving at LEMG availible today
10 Schedules Today
Average Landing Rate at LEMG
-262 fpm
Norwegian Air Shuttle Average Landing Rate at LEMG
0 fpm
Total Fuel Purchased at LEMG by Norwegian Air Shuttle
0.00 kgs / 0.00 lbs

Pilots Based at LEMG


Pilot ID
Pilot Name
Pilot Rank
No. of Flights
No. of Flying Hours
There are no pilots assigned to this hub!   Will you be the first?
Content